Temperature
3 3 3 2 2 2 2 2 2 2 2 2 1 0 1 1 0 -0 -1 -1 -1 -1 -2 -2 -2 -2 -2 -2 -2 -2 -2 -2 -2 -2 -3 -3 -3 -3 -3 -3 -3 -3 -3 -4
2 3 2 2 1 2 1 1 1 1 1 1 0 0 -0 -1 -1 -2 -2 -2 -2 -2 -2 -2 -3 -2 -3 -3 -3 -3 -3 -3 -3 -3 -3 -3 -3 -3 -4 -4 -4 -4 -4 -4
2 2 2 0 0 1 0 -0 0 0 -0 -1 -1 -1 -2 -2 -2 -2 -2 -2 -3 -3 -3 -3 -3 -3 -3 -3 -3 -3 -3 -4 -4 -4 -4 -4 -4 -4 -4 -4 -5 -5 -5 -5
1 1 0 1 0 0 -0 -1 -1 -1 -1 -2 -2 -2 -2 -2 -3 -3 -3 -3 -3 -3 -4 -4 -4 -4 -4 -4 -4 -4 -4 -4 -5 -5 -5 -5 -5 -5 -5 -5 -5 -5 -5 -6
0 0 0 1 -1 -1 -1 -2 -2 -2 -2 -3 -3 -2 -3 -3 -3 -3 -4 -4 -4 -4 -4 -4 -4 -4 -4 -4 -5 -5 -5 -5 -5 -5 -5 -5 -5 -5 -6 -6 -6 -6 -6 -6
-0 0 0 -0 -2 -1 -1 -2 -3 -3 -3 -4 -3 -3 -4 -4 -4 -4 -4 -4 -4 -4 -5 -5 -5 -5 -5 -5 -5 -5 -5 -6 -6 -6 -6 -6 -6 -6 -6 -6 -7 -7 -7 -7
-1 -1 -1 -2 -3 -2 -1 -2 -3 -3 -4 -4 -5 -4 -5 -5 -5 -5 -5 -5 -5 -5 -5 -5 -6 -5 -6 -6 -6 -6 -6 -6 -6 -6 -6 -7 -7 -7 -7 -7 -7 -7 -7 -8
-2 -2 -2 -4 -4 -3 -3 -3 -3 -4 -4 -5 -5 -5 -5 -6 -6 -6 -6 -6 -6 -6 -6 -6 -6 -6 -6 -6 -7 -6 -7 -7 -7 -7 -7 -7 -7 -7 -8 -8 -8 -8 -8 -8
-3 -2 -3 -4 -4 -4 -4 -4 -4 -5 -5 -5 -6 -6 -6 -7 -7 -7 -7 -7 -7 -7 -7 -7 -7 -7 -7 -7 -7 -7 -7 -7 -8 -8 -8 -8 -8 -8 -8 -8 -9 -9 -9 -9
-4 -4 -4 -4 -4 -4 -5 -5 -5 -6 -6 -6 -7 -7 -7 -8 -8 -8 -8 -8 -8 -7 -7 -7 -7 -7 -8 -8 -8 -8 -8 -8 -8 -8 -8 -9 -9 -9 -9 -9 -9 -9 -10 -9
-5 -5 -5 -5 -5 -5 -5 -6 -6 -6 -7 -7 -7 -8 -8 -8 -8 -9 -9 -8 -8 -8 -8 -8 -8 -8 -8 -8 -8 -9 -9 -9 -9 -9 -9 -9 -9 -9 -10 -10 -10 -10 -10 -10
-5 -5 -6 -6 -6 -6 -6 -7 -7 -7 -7 -8 -8 -8 -9 -9 -9 -9 -9 -9 -9 -9 -9 -9 -9 -9 -9 -9 -9 -9 -9 -9 -9 -10 -10 -10 -10 -10 -10 -10 -10 -10 -10 -10
-5 -5 -6 -6 -6 -7 -7 -7 -8 -8 -8 -8 -9 -9 -9 -9 -10 -10 -10 -9 -9 -9 -9 -9 -9 -9 -10 -10 -10 -10 -10 -10 -10 -10 -10 -10 -11 -11 -11 -11 -11 -11 -11 -11
-6 -6 -7 -7 -8 -8 -8 -8 -8 -8 -9 -9 -9 -10 -10 -10 -10 -10 -10 -10 -10 -10 -10 -10 -10 -10 -10 -10 -10 -10 -10 -11 -11 -11 -11 -11 -11 -11 -11 -12 -11 -11 -11 -11
-7 -7 -8 -8 -8 -9 -9 -9 -9 -9 -9 -10 -10 -10 -10 -10 -10 -10 -11 -10 -10 -10 -11 -11 -11 -11 -11 -11 -11 -11 -11 -11 -11 -12 -12 -12 -12 -12 -12 -12 -12 -12 -12 -12
-8 -8 -9 -9 -9 -9 -9 -10 -10 -10 -10 -10 -10 -11 -11 -11 -11 -11 -11 -11 -11 -11 -11 -11 -11 -11 -12 -12 -12 -12 -12 -12 -12 -12 -12 -12 -13 -13 -13 -13 -13 -13 -13 -13
-9 -10 -10 -10 -10 -10 -10 -10 -10 -10 -11 -11 -11 -11 -11 -11 -11 -11 -11 -11 -11 -12 -12 -12 -12 -12 -12 -12 -12 -12 -12 -13 -13 -13 -13 -13 -13 -13 -13 -14 -14 -14 -13 -13
-9 -9 -9 -10 -10 -10 -11 -11 -11 -11 -11 -11 -11 -11 -11 -12 -12 -12 -12 -12 -12 -12 -12 -12 -12 -13 -13 -13 -13 -13 -13 -13 -13 -13 -13 -13 -14 -14 -14 -14 -14 -14 -14 -14
-10 -10 -10 -10 -10 -11 -11 -11 -11 -11 -11 -12 -12 -12 -12 -12 -12 -12 -12 -13 -13 -13 -13 -13 -13 -13 -13 -13 -13 -13 -14 -14 -14 -14 -14 -14 -14 -14 -14 -14 -14 -14 -14 -14
-10 -10 -10 -11 -11 -11 -11 -11 -12 -12 -12 -12 -12 -12 -12 -12 -13 -13 -13 -13 -13 -13 -13 -13 -13 -13 -13 -14 -14 -14 -14 -14 -14 -14 -14 -15 -15 -15 -15 -15 -15 -15 -15 -15
-11 -11 -11 -11 -11 -11 -12 -12 -12 -12 -12 -12 -12 -13 -13 -13 -13 -13 -13 -13 -13 -14 -14 -14 -14 -14 -14 -14 -14 -14 -14 -14 -14 -15 -15 -15 -15 -15 -15 -15 -15 -15 -15 -15
-11 -11 -11 -11 -12 -12 -12 -12 -12 -12 -13 -13 -13 -13 -13 -13 -13 -13 -13 -14 -14 -14 -14 -14 -14 -14 -14 -14 -14 -14 -14 -15 -15 -15 -15 -15 -15 -15 -15 -15 -15 -15 -15 -15
-11 -12 -12 -12 -12 -12 -12 -12 -13 -13 -13 -13 -13 -13 -13 -13 -13 -14 -14 -14 -14 -14 -14 -14 -14 -15 -15 -14 -14 -15 -15 -15 -15 -15 -15 -15 -15 -15 -16 -16 -16 -16 -15 -15
-12 -12 -12 -12 -12 -13 -13 -13 -13 -13 -13 -13 -14 -14 -14 -14 -14 -14 -14 -14 -14 -14 -14 -14 -14 -15 -15 -15 -15 -15 -15 -15 -15 -15 -15 -15 -16 -16 -16 -16 -16 -16 -16 -16
-12 -12 -12 -13 -13 -13 -13 -13 -13 -14 -14 -14 -14 -14 -14 -14 -14 -14 -14 -14 -14 -14 -14 -14 -15 -15 -15 -15 -15 -15 -15 -15 -15 -16 -16 -16 -16 -16 -16 -16 -16 -16 -16 -16
-12 -13 -13 -13 -13 -13 -14 -14 -14 -14 -14 -14 -14 -14 -14 -14 -15 -15 -15 -15 -15 -15 -15 -15 -15 -15 -15 -15 -15 -15 -15 -16 -16 -16 -16 -16 -16 -16 -16 -16 -16 -16 -16 -16
-13 -13 -13 -13 -14 -14 -14 -14 -14 -14 -14 -15 -14 -15 -15 -15 -15 -15 -15 -15 -15 -15 -15 -15 -15 -15 -15 -15 -16 -16 -16 -16 -16 -16 -16 -16 -16 -16 -16 -16 -16 -16 -16 -17
Wind_Speed
4 3 1 3 4 3 4 4 4 4 4 5 3 2 2 2 3 4 3 2 3 3 3 3 3 3 4 4 4 5 5 4 4 4 4 4 4 3 3 3 3 3 2 2
4 3 2 3 4 5 5 4 5 5 6 4 3 3 3 3 3 2 2 2 2 2 3 2 2 3 3 4 4 5 5 4 4 4 4 3 3 3 3 2 2 2 2 2
3 1 2 3 4 3 1 1 2 4 4 3 4 4 3 3 2 1 1 2 1 1 2 2 2 3 3 4 4 5 5 4 4 4 4 3 3 3 3 2 2 2 2 1
2 1 4 3 2 1 1 1 1 1 3 3 3 3 3 3 2 2 2 2 1 1 1 2 2 3 3 4 4 5 4 4 3 3 3 3 3 2 2 2 2 2 2 1
1 2 4 1 2 2 1 2 2 3 4 4 3 3 4 6 4 3 2 2 1 1 2 2 3 3 4 4 4 4 4 3 3 3 3 3 2 2 2 2 1 1 1 1
2 3 4 2 3 4 1 2 4 3 3 3 3 2 2 4 5 4 4 3 2 2 3 3 3 3 4 4 4 3 3 3 2 2 2 2 2 1 1 1 1 1 0 1
3 4 3 2 3 2 1 4 4 3 2 2 1 1 2 4 5 4 4 4 4 3 3 3 3 4 4 3 2 2 3 3 2 2 2 2 1 1 1 1 1 1 1 1
2 3 5 2 2 2 2 2 3 3 2 2 2 2 3 4 4 4 4 4 4 3 3 3 3 4 4 2 2 3 3 3 2 2 1 1 2 1 1 1 1 1 1 1
4 4 0 2 2 1 2 3 3 3 3 2 2 2 3 3 4 4 4 4 4 3 3 3 3 3 3 2 2 3 3 2 2 2 1 1 1 1 1 1 1 1 1 1
2 3 1 1 2 3 3 2 3 3 2 2 1 1 2 2 3 3 3 3 3 3 3 3 3 3 3 3 3 3 2 2 2 2 1 1 0 0 1 1 1 1 1 2
3 2 3 1 2 2 3 3 3 3 3 2 2 2 2 2 3 3 3 3 3 3 3 3 4 3 3 3 3 3 2 2 2 1 1 1 0 0 1 1 2 2 2 2
4 2 2 2 2 2 2 2 2 2 3 3 3 2 2 2 3 3 3 3 3 3 3 3 3 3 3 2 3 2 2 2 1 1 0 1 0 1 2 2 3 3 3 3
3 1 1 1 2 2 2 2 2 2 2 2 3 3 3 3 3 3 3 4 3 3 3 3 3 3 3 2 2 2 1 1 1 1 1 1 1 1 1 3 4 4 5 5
1 2 1 1 2 2 2 3 3 3 3 3 3 3 3 3 3 3 3 3 3 3 3 3 3 3 2 2 2 2 1 1 1 1 1 1 1 1 1 2 2 3 4 6
1 1 1 0 1 2 2 3 3 3 3 3 3 3 3 3 2 3 3 3 3 3 3 3 2 2 2 2 2 1 1 0 1 1 1 1 1 1 2 2 2 3 3 4
1 1 1 1 1 1 1 2 2 1 2 2 2 2 2 2 2 2 3 3 2 2 2 2 1 2 2 1 1 1 1 2 2 1 1 1 1 1 2 2 3 3 3 3
2 1 1 1 1 0 0 1 1 1 1 1 1 2 2 2 3 3 2 2 2 2 1 1 1 2 1 1 1 1 1 2 3 2 1 1 1 2 2 2 3 3 3 5
1 2 2 3 2 1 1 1 1 1 1 0 1 2 2 1 1 2 2 2 2 2 2 2 1 1 1 1 1 1 1 1 1 1 1 2 2 2 2 3 3 4 4 5
2 2 2 2 2 2 1 1 1 1 1 1 1 1 0 1 1 1 1 1 1 2 2 2 3 2 1 1 2 1 1 1 2 2 2 4 3 2 3 3 4 4 4 4
3 3 3 2 2 2 2 1 1 1 1 1 1 1 1 1 1 1 1 1 2 2 2 2 2 1 1 2 3 1 1 2 2 2 2 2 3 3 3 4 4 4 5 5
2 2 2 2 2 2 1 1 1 1 1 1 1 0 1 1 1 1 1 2 2 2 2 3 2 2 1 2 3 1 1 2 2 2 3 3 3 4 4 4 5 5 5 5
2 2 2 2 2 2 1 1 1 1 1 1 0 0 1 1 1 1 2 2 2 3 2 2 2 3 4 3 1 1 2 2 3 3 3 4 4 4 5 5 5 5 6 6
2 2 2 2 2 1 1 1 1 1 0 0 0 1 1 2 1 2 2 2 2 4 3 2 4 6 6 2 1 2 2 3 3 4 4 4 5 5 5 6 6 6 6 6
2 2 2 2 2 2 1 1 1 0 0 1 1 1 1 1 2 2 2 3 5 5 3 4 7 7 6 2 2 2 3 3 4 4 4 4 5 5 5 6 6 6 6 7
2 2 2 2 1 1 0 1 1 1 1 1 1 1 1 1 2 2 2 3 5 5 3 5 7 7 4 3 3 3 3 4 5 5 4 5 5 5 6 6 6 7 7 7
2 1 1 1 1 1 0 0 0 1 1 1 1 1 1 1 1 2 2 2 4 5 4 3 4 5 3 4 4 4 4 5 6 5 5 6 6 6 7 7 8 7 7 8
2 1 1 1 1 0 0 0 0 1 1 1 2 2 2 2 2 2 2 2 3 3 3 3 3 3 4 4 4 5 5 5 5 5 6 6 6 7 7 8 8 8 9 10
Wind_Direction
285 297 290 277 284 249 224 236 238 261 270 299 331 339 9 27 60 67 63 80 95 102 99 95 97 105 113 118 121 128 131 132 131 127 126 125 127 129 128 132 137 140 139 138
275 253 272 305 294 257 247 253 253 271 289 326 1 25 24 27 57 52 30 42 76 92 107 108 110 116 118 121 125 126 130 130 125 124 125 126 128 128 128 135 140 139 148 154
261 265 335 295 281 239 196 254 231 250 280 353 12 18 16 15 31 20 11 12 41 93 128 126 125 129 132 130 126 125 125 126 125 126 131 131 129 131 142 152 151 155 163 161
271 338 248 235 46 67 191 317 353 334 352 11 1 349 22 35 23 9 13 11 14 72 97 93 99 105 116 119 120 123 123 125 126 127 131 130 130 139 146 148 164 174 173 184
235 250 263 270 10 16 267 298 2 316 333 349 1 7 20 21 24 14 9 15 20 66 99 95 94 107 117 117 118 119 123 123 125 129 134 137 143 148 146 148 157 167 168 187
228 243 244 272 329 332 358 286 358 357 338 343 12 351 322 9 21 20 20 33 55 77 83 86 82 101 115 118 121 126 128 126 124 127 133 141 148 145 143 150 160 167 208 209
231 239 258 314 322 13 143 278 337 358 360 16 356 290 337 17 24 23 24 37 53 72 83 84 85 98 107 109 115 116 110 109 111 115 129 141 142 141 140 144 137 180 236 263
216 231 257 2 85 145 245 347 13 18 19 22 7 7 23 29 29 26 27 37 47 60 75 79 89 104 105 99 80 89 101 106 111 115 119 120 135 137 134 153 174 212 227 259
200 214 172 122 129 63 26 3 3 10 17 35 15 7 27 29 25 27 30 33 42 56 67 68 79 100 109 84 82 90 98 110 115 103 95 103 138 154 162 177 190 234 230 247
243 251 272 117 50 19 19 17 6 14 19 33 23 21 33 30 28 29 31 36 42 55 66 61 61 73 86 82 86 95 106 109 107 106 100 101 157 178 169 196 211 249 259 266
246 291 334 2 13 4 15 25 20 19 21 29 52 46 50 39 30 26 31 36 47 54 65 60 58 59 63 74 88 91 91 86 80 85 99 87 56 294 253 234 232 234 242 251
240 233 244 286 3 18 26 9 17 23 18 29 49 50 45 42 35 33 33 36 43 49 56 57 59 53 52 67 87 92 81 68 61 63 66 72 73 1 334 311 299 291 286 284
250 323 342 315 12 37 35 24 35 39 44 35 38 51 52 45 41 39 39 39 39 38 43 50 51 46 47 64 81 91 88 55 31 27 31 9 352 334 330 329 321 313 305 301
54 51 354 342 359 25 39 49 53 51 49 52 51 54 59 54 45 39 31 27 33 40 47 56 53 37 31 46 61 69 67 8 1 357 343 319 306 300 295 300 310 313 311 306
343 338 232 279 31 42 66 73 69 57 51 44 51 56 56 51 33 19 15 22 38 45 44 47 42 19 17 36 42 31 6 344 330 315 300 297 303 304 302 304 300 300 308 314
30 61 103 121 130 87 87 94 92 67 55 43 39 36 37 40 30 23 27 37 47 32 15 15 2 351 11 25 8 344 309 314 327 318 309 315 317 311 307 303 302 300 296 298
144 197 200 202 212 184 123 138 136 120 85 60 35 38 44 44 37 25 17 16 19 14 0 353 336 337 354 2 326 307 308 309 320 323 311 303 301 294 292 293 294 296 293 295
174 192 192 191 190 175 135 86 96 100 91 82 62 63 59 54 15 347 350 4 14 7 351 350 343 331 332 316 289 290 299 296 298 293 296 291 289 285 288 288 290 293 296 300
99 108 105 107 125 135 131 118 97 89 90 88 84 71 27 353 349 351 9 14 357 330 330 339 336 352 332 312 324 298 294 299 301 296 289 291 303 297 287 284 285 287 290 291
87 87 89 82 81 99 111 104 100 86 75 92 96 63 7 342 345 348 336 303 296 300 310 318 325 318 300 290 304 288 278 276 275 279 281 278 281 282 281 282 282 282 284 286
106 98 92 87 74 67 84 101 107 98 62 95 136 222 293 316 327 317 308 307 316 328 325 322 333 309 290 297 306 288 273 276 279 276 277 277 279 279 278 278 280 283 283 284
118 113 105 98 91 62 41 62 91 93 67 48 31 5 343 326 319 303 273 273 297 318 337 317 306 300 306 317 308 285 278 279 278 276 274 274 275 278 279 279 279 280 280 279
120 118 113 108 106 81 42 45 56 78 75 346 312 291 279 278 278 285 299 298 301 308 323 296 301 308 316 332 305 286 282 281 279 278 276 275 274 274 275 276 277 278 278 279
117 110 106 100 99 87 44 6 15 25 298 284 271 246 251 288 298 277 275 300 313 314 314 303 310 312 321 329 294 284 280 280 280 279 279 279 279 277 276 276 276 276 275 277
119 116 112 113 108 102 54 4 15 359 353 344 332 313 273 248 259 288 303 301 308 319 318 311 313 317 324 305 292 285 282 278 277 278 272 277 277 277 276 276 275 277 277 276
123 131 139 137 139 150 143 102 349 329 344 337 332 326 319 308 286 289 294 296 298 312 317 306 306 308 304 293 288 285 282 289 294 293 284 281 278 278 277 277 277 277 277 277
95 96 101 90 81 101 125 149 246 286 302 301 304 310 314 313 308 305 302 300 302 302 299 297 299 297 295 291 290 289 289 288 286 284 283 281 279 278 278 277 279 279 279 279
Height
1462 1460 1461 1462 1463 1463 1463 1461 1462 1459 1459 1458 1458 1458 1458 1457 1457 1457 1457 1457 1457 1458 1458 1459 1460 1461 1462 1463 1465 1466 1468 1469 1471 1473 1474 1476 1477 1479 1481 1482 1484 1485 1486 1487
1464 1460 1460 1463 1462 1462 1462 1463 1462 1460 1461 1458 1458 1458 1458 1457 1457 1457 1457 1457 1457 1458 1458 1458 1459 1459 1461 1462 1463 1464 1466 1467 1469 1471 1472 1474 1475 1477 1478 1480 1481 1482 1483 1484
1463 1460 1461 1467 1464 1461 1463 1463 1462 1462 1462 1459 1458 1458 1458 1458 1457 1457 1457 1456 1457 1457 1457 1457 1458 1458 1459 1460 1462 1463 1464 1466 1467 1469 1470 1472 1473 1474 1476 1477 1478 1479 1480 1481
1465 1466 1471 1464 1460 1459 1460 1461 1461 1460 1460 1459 1459 1458 1457 1457 1457 1456 1456 1455 1455 1456 1456 1456 1457 1457 1458 1459 1460 1461 1462 1464 1466 1467 1469 1470 1471 1472 1473 1474 1475 1476 1477 1478
1468 1468 1463 1461 1461 1461 1462 1462 1461 1460 1459 1459 1458 1456 1456 1456 1456 1455 1455 1454 1454 1454 1454 1455 1455 1456 1457 1457 1459 1460 1461 1463 1464 1466 1467 1468 1469 1470 1471 1472 1473 1474 1474 1475
1467 1467 1465 1464 1462 1459 1461 1463 1461 1459 1459 1459 1457 1459 1459 1457 1456 1455 1454 1453 1452 1452 1453 1453 1454 1455 1455 1456 1457 1458 1460 1461 1463 1464 1465 1466 1467 1468 1469 1470 1470 1471 1472 1473
1470 1468 1465 1465 1462 1460 1465 1464 1461 1459 1459 1459 1459 1460 1459 1457 1455 1454 1453 1452 1451 1451 1451 1452 1453 1453 1454 1455 1456 1457 1458 1460 1461 1462 1463 1464 1465 1466 1467 1467 1468 1469 1469 1470
1470 1469 1469 1465 1463 1465 1464 1461 1460 1459 1459 1459 1458 1457 1456 1455 1454 1453 1452 1451 1451 1450 1451 1451 1452 1452 1453 1453 1455 1456 1456 1458 1459 1460 1461 1462 1462 1463 1464 1465 1465 1466 1466 1466
1467 1467 1464 1462 1462 1462 1462 1461 1460 1459 1458 1458 1457 1456 1455 1454 1453 1452 1451 1451 1450 1450 1450 1450 1451 1451 1451 1452 1453 1454 1455 1456 1457 1457 1459 1459 1460 1461 1461 1462 1462 1463 1463 1463
1464 1462 1462 1462 1461 1461 1461 1460 1459 1459 1458 1457 1455 1454 1453 1453 1452 1451 1451 1450 1450 1449 1449 1449 1450 1450 1451 1452 1452 1453 1454 1454 1455 1456 1456 1457 1458 1459 1459 1459 1460 1460 1460 1461
1463 1462 1461 1460 1460 1460 1459 1459 1458 1457 1456 1455 1454 1453 1452 1451 1451 1451 1450 1450 1450 1449 1449 1449 1449 1450 1450 1451 1451 1452 1452 1453 1453 1454 1455 1455 1456 1457 1457 1457 1458 1458 1458 1458
1461 1460 1460 1459 1459 1458 1457 1456 1456 1455 1454 1453 1453 1452 1451 1450 1450 1450 1450 1449 1449 1449 1449 1449 1449 1449 1449 1449 1450 1450 1451 1451 1452 1452 1453 1453 1454 1455 1455 1456 1456 1455 1455 1455
1458 1458 1458 1457 1457 1456 1456 1455 1454 1453 1453 1452 1451 1451 1450 1450 1450 1449 1449 1449 1449 1449 1448 1448 1448 1448 1448 1449 1449 1449 1450 1450 1450 1451 1451 1451 1452 1452 1452 1453 1453 1452 1452 1452
1456 1456 1455 1455 1455 1455 1454 1453 1453 1452 1452 1451 1451 1450 1450 1450 1449 1449 1449 1449 1449 1448 1448 1448 1448 1448 1448 1448 1448 1448 1448 1449 1449 1449 1449 1449 1450 1450 1450 1449 1449 1448 1449 1448
1453 1453 1453 1453 1453 1453 1452 1452 1451 1451 1451 1451 1450 1450 1450 1449 1449 1449 1449 1449 1449 1448 1448 1448 1447 1447 1447 1447 1447 1447 1447 1447 1447 1447 1447 1447 1447 1447 1447 1447 1446 1445 1445 1444
1450 1451 1451 1451 1451 1450 1450 1450 1450 1450 1450 1450 1450 1450 1449 1449 1449 1449 1449 1448 1448 1447 1447 1447 1447 1447 1446 1446 1446 1446 1446 1446 1446 1445 1445 1445 1445 1445 1444 1444 1443 1442 1442 1441
1448 1448 1448 1449 1449 1449 1449 1449 1449 1449 1449 1449 1449 1449 1449 1449 1448 1448 1448 1448 1447 1447 1447 1446 1446 1446 1445 1445 1444 1444 1444 1444 1444 1443 1443 1443 1442 1442 1442 1441 1440 1439 1438 1438
1446 1446 1447 1447 1447 1447 1447 1448 1448 1448 1448 1448 1448 1448 1448 1448 1447 1447 1447 1447 1446 1446 1446 1445 1445 1444 1444 1443 1443 1442 1442 1442 1442 1441 1441 1440 1440 1439 1439 1438 1437 1436 1435 1434
1445 1445 1445 1446 1446 1446 1446 1447 1447 1447 1448 1448 1447 1447 1447 1447 1447 1446 1446 1445 1445 1444 1444 1444 1443 1443 1442 1441 1441 1440 1440 1439 1439 1438 1438 1437 1437 1436 1435 1434 1433 1432 1431 1430
1444 1444 1445 1445 1445 1445 1446 1446 1446 1446 1447 1447 1447 1446 1446 1446 1446 1445 1445 1444 1444 1443 1443 1442 1441 1441 1440 1439 1439 1438 1437 1437 1436 1435 1435 1434 1433 1432 1432 1431 1430 1429 1428 1426
1443 1444 1444 1444 1444 1445 1445 1445 1445 1445 1446 1446 1446 1445 1445 1445 1445 1444 1443 1443 1443 1442 1441 1440 1440 1439 1438 1437 1436 1435 1435 1434 1433 1432 1432 1431 1430 1429 1428 1427 1426 1425 1423 1422
1443 1443 1443 1444 1444 1444 1444 1444 1445 1445 1445 1445 1444 1444 1444 1443 1443 1443 1442 1442 1441 1440 1439 1438 1438 1437 1436 1435 1434 1433 1432 1431 1430 1429 1428 1427 1426 1425 1424 1423 1421 1420 1419 1417
1442 1442 1443 1443 1443 1443 1444 1444 1444 1444 1444 1444 1443 1443 1443 1442 1442 1441 1441 1440 1439 1438 1437 1436 1436 1435 1434 1433 1431 1430 1429 1428 1427 1426 1425 1424 1422 1421 1420 1418 1417 1415 1414 1412
1441 1441 1442 1442 1443 1443 1443 1443 1443 1443 1443 1443 1442 1442 1442 1441 1441 1440 1439 1438 1437 1437 1435 1435 1434 1433 1432 1430 1429 1428 1426 1425 1424 1422 1421 1420 1418 1417 1415 1413 1412 1410 1408 1406
1440 1441 1441 1441 1441 1442 1442 1442 1442 1442 1441 1441 1441 1441 1440 1440 1439 1438 1438 1437 1436 1435 1433 1433 1431 1430 1429 1427 1426 1424 1423 1421 1420 1418 1417 1415 1413 1412 1410 1408 1406 1404 1402 1400
1439 1440 1440 1441 1441 1441 1441 1441 1441 1440 1440 1440 1439 1439 1439 1438 1437 1436 1436 1435 1434 1432 1431 1430 1429 1427 1426 1424 1423 1421 1419 1418 1416 1414 1412 1410 1409 1407 1405 1403 1401 1399 1397 1394
1439 1439 1439 1439 1440 1440 1440 1440 1439 1439 1439 1439 1438 1438 1437 1436 1435 1434 1433 1432 1431 1430 1428 1427 1426 1424 1422 1421 1419 1417 1415 1413 1412 1410 1408 1406 1404 1402 1400 1397 1395 1393 1391 1389